{"data":{"norad_id":68373,"epoch":"2026-05-25T04:37:32.011104Z","epoch_age_seconds":55238,"freshness":"FRESH","line1":"1 68373U 26061P   26145.19273161  .00074101  00000+0  31025-3 0  9996","line2":"2 68373  82.2970  37.9769 0004796 178.2346 181.8941 15.85335048  9929","mean_motion":15.85335048,"eccentricity":0.0004796,"inclination_deg":82.297,"raan_deg":37.9769,"arg_perigee_deg":178.2346,"mean_anomaly_deg":181.8941,"bstar":0.00031025,"rev_number":992,"period_min":90.832534221498,"perigee_km":312.17127769456,"apogee_km":318.59170062937,"semimajor_km":6693.518489162,"source":"CELESTRAK","updated_at":"2026-05-25T13:38:07.767579Z"}}